Location: Denia
(38.8500°N, 0.1170°E)
Time: 01:14:58
(UTC+01:00)

Envisat - Pass Details

Date: 21 January 2020
Orbit: 764 x 766 km, 98.1° (Epoch: 24 February)

Event Time Altitude Azimuth Distance (km) Brightness Sun altitude
Rises 06:22:42 0° 34° (NNE) 3,238 6.6 -21.5°
Reaches altitude 10° 06:26:07 10° 58° (ENE) 2,305 6.1 -20.9°
Maximum altitude 06:28:52 15° 91° (E) 2,002 6.2 -20.3°
Drops below altitude 10° 06:31:36 10° 124° (SE) 2,296 6.4 -19.8°
Sets 06:34:58 0° 148° (SSE) 3,216 6.9 -19.2°
